GLO2175 SBSI-SBSP

Flight info

Callsign GLO2175
Flight time 2h 7m
Altitude 35000
Route OBKAV UZ40 OPMUS UZ87 PALCA UM411 UTLOT
Aircraft B738/M-SDE2E3FGHIRWXY/LB1

Departure

Time 2026-04-26 12:44
Airport Presidente João Batista Figueiredo Airport (SBSI)

Arrival

Time 2026-04-26 14:52
Airport Congonhas–Deputado Freitas Nobre Airport (SBSP)
Time Latitude Longitude Altitude Speed Heading
2026-04-26 12:21 -11.87831 -55.58260 1288 ft 0 kts 104°
2026-04-26 12:36 -11.87826 -55.58272 1290 ft 2 kts 133°
2026-04-26 12:36 -11.87812 -55.58279 1289 ft 2 kts 185°
2026-04-26 12:36 -11.87799 -55.58276 1289 ft 1 kts 194°
2026-04-26 12:37 -11.87797 -55.58276 1288 ft 0 kts 195°
2026-04-26 12:38 -11.87817 -55.58281 1285 ft 4 kts 194°
2026-04-26 12:39 -11.87847 -55.58291 1285 ft 4 kts 214°
2026-04-26 12:39 -11.87852 -55.58320 1285 ft 4 kts 277°
2026-04-26 12:39 -11.87845 -55.58350 1285 ft 4 kts 283°
2026-04-26 12:39 -11.87838 -55.58379 1288 ft 4 kts 284°
2026-04-26 12:40 -11.87829 -55.58431 1283 ft 10 kts 266°
2026-04-26 12:40 -11.87883 -55.58469 1284 ft 11 kts 195°
2026-04-26 12:40 -11.87977 -55.58495 1285 ft 16 kts 194°
2026-04-26 12:40 -11.88102 -55.58527 1286 ft 21 kts 195°
2026-04-26 12:41 -11.88256 -55.58569 1288 ft 24 kts 194°
2026-04-26 12:41 -11.88413 -55.58611 1289 ft 23 kts 194°
2026-04-26 12:41 -11.88565 -55.58652 1289 ft 22 kts 194°
2026-04-26 12:41 -11.88712 -55.58691 1290 ft 22 kts 194°
2026-04-26 12:42 -11.88855 -55.58729 1290 ft 22 kts 194°
2026-04-26 12:42 -11.89010 -55.58770 1289 ft 23 kts 194°
2026-04-26 12:42 -11.89148 -55.58798 1289 ft 13 kts 167°
2026-04-26 12:42 -11.89197 -55.58807 1289 ft 2 kts 282°
2026-04-26 12:43 -11.89183 -55.58812 1289 ft 3 kts 351°
2026-04-26 12:43 -11.89149 -55.58807 1289 ft 9 kts 13°
2026-04-26 12:43 -11.88837 -55.58724 1290 ft 86 kts 14°
2026-04-26 12:43 -11.88020 -55.58506 1286 ft 155 kts 14°
2026-04-26 12:44 -11.86891 -55.58205 1806 ft 171 kts 16°
2026-04-26 12:44 -11.85852 -55.57640 2720 ft 170 kts 50°
2026-04-26 12:44 -11.85476 -55.56460 3347 ft 192 kts 90°
2026-04-26 12:44 -11.85603 -55.55014 3592 ft 217 kts 93°
2026-04-26 12:45 -11.85717 -55.53408 3888 ft 234 kts 92°
2026-04-26 12:45 -11.85789 -55.51736 4589 ft 235 kts 91°
2026-04-26 12:45 -11.85823 -55.50634 5077 ft 235 kts 91°
2026-04-26 12:45 -11.85876 -55.48363 5818 ft 250 kts 91°
2026-04-26 12:46 -11.85921 -55.47176 6231 ft 255 kts 97°
2026-04-26 12:46 -11.86514 -55.45462 6990 ft 262 kts 120°
2026-04-26 12:46 -11.87749 -55.44057 7657 ft 272 kts 136°
2026-04-26 12:46 -11.89227 -55.42817 8383 ft 277 kts 139°
2026-04-26 12:47 -11.90756 -55.41582 9095 ft 283 kts 139°
2026-04-26 12:47 -11.92317 -55.40327 9805 ft 288 kts 140°
2026-04-26 12:47 -11.93912 -55.39041 10417 ft 297 kts 140°
2026-04-26 12:47 -11.95590 -55.37679 10595 ft 320 kts 140°
2026-04-26 12:48 -11.97396 -55.36207 10764 ft 342 kts 140°
2026-04-26 12:48 -11.99296 -55.34655 11104 ft 356 kts 140°
2026-04-26 12:48 -12.01247 -55.33059 11677 ft 361 kts 140°
2026-04-26 12:48 -12.03192 -55.31467 12315 ft 364 kts 140°
2026-04-26 12:49 -12.05180 -55.29838 12933 ft 368 kts 140°
2026-04-26 12:49 -12.07183 -55.28194 13530 ft 372 kts 140°
2026-04-26 12:49 -12.09214 -55.26526 14100 ft 375 kts 140°
2026-04-26 12:49 -12.11255 -55.24849 14632 ft 379 kts 140°
2026-04-26 12:50 -12.13322 -55.23151 15176 ft 382 kts 140°
2026-04-26 12:50 -12.15403 -55.21440 15693 ft 386 kts 140°
2026-04-26 12:50 -12.17505 -55.19712 16203 ft 389 kts 141°
2026-04-26 12:50 -12.19621 -55.17972 16711 ft 392 kts 140°
2026-04-26 12:51 -12.21760 -55.16212 17212 ft 396 kts 140°
2026-04-26 12:51 -12.23915 -55.14439 17695 ft 399 kts 140°
2026-04-26 12:51 -12.26086 -55.12652 18166 ft 402 kts 141°
2026-04-26 12:51 -12.28275 -55.10850 18584 ft 405 kts 141°
2026-04-26 12:52 -12.30483 -55.09031 18998 ft 408 kts 140°
2026-04-26 12:52 -12.32701 -55.07205 19404 ft 410 kts 140°
2026-04-26 12:52 -12.34932 -55.05367 19816 ft 413 kts 140°
2026-04-26 12:52 -12.36976 -55.03301 20166 ft 415 kts 124°
2026-04-26 12:53 -12.38318 -55.00697 20575 ft 414 kts 111°
2026-04-26 12:53 -12.39361 -54.97953 21017 ft 415 kts 109°
2026-04-26 12:53 -12.40381 -54.95175 21387 ft 418 kts 109°
2026-04-26 12:53 -12.41418 -54.92383 21757 ft 421 kts 109°
2026-04-26 12:54 -12.42483 -54.89590 22142 ft 423 kts 110°
2026-04-26 12:54 -12.43568 -54.86787 22536 ft 425 kts 110°
2026-04-26 12:54 -12.44745 -54.84046 22890 ft 429 kts 118°
2026-04-26 12:54 -12.46503 -54.81561 23220 ft 435 kts 130°
2026-04-26 12:55 -12.48771 -54.79489 23565 ft 440 kts 143°
2026-04-26 12:55 -12.51432 -54.77898 23856 ft 444 kts 149°
2026-04-26 12:55 -12.54176 -54.76429 24144 ft 446 kts 150°
2026-04-26 12:55 -12.56930 -54.74952 24421 ft 448 kts 150°
2026-04-26 12:56 -12.59679 -54.73434 24697 ft 449 kts 149°
2026-04-26 12:56 -12.62418 -54.71892 24972 ft 450 kts 149°
2026-04-26 12:56 -12.65163 -54.70337 25244 ft 452 kts 149°
2026-04-26 12:56 -12.67925 -54.68776 25512 ft 454 kts 149°
2026-04-26 12:57 -12.70666 -54.67229 25787 ft 455 kts 149°
2026-04-26 12:57 -12.73446 -54.65661 26044 ft 457 kts 149°
2026-04-26 12:57 -12.76270 -54.64068 26296 ft 459 kts 149°
2026-04-26 12:58 -12.81881 -54.60901 26803 ft 462 kts 149°
2026-04-26 12:58 -12.84702 -54.59308 27048 ft 464 kts 149°
2026-04-26 12:58 -12.87531 -54.57710 27295 ft 465 kts 149°
2026-04-26 12:58 -12.90334 -54.56130 27528 ft 467 kts 149°
2026-04-26 12:59 -12.93184 -54.54524 27757 ft 468 kts 149°
2026-04-26 12:59 -12.96045 -54.52913 27988 ft 470 kts 149°
2026-04-26 12:59 -12.98919 -54.51293 28218 ft 472 kts 149°
2026-04-26 12:59 -13.01798 -54.49669 28441 ft 473 kts 149°
2026-04-26 13:00 -13.04684 -54.48041 28659 ft 474 kts 149°
2026-04-26 13:00 -13.07585 -54.46404 28873 ft 476 kts 149°
2026-04-26 13:00 -13.10494 -54.44762 29086 ft 477 kts 149°
2026-04-26 13:00 -13.13409 -54.43116 29285 ft 479 kts 149°
2026-04-26 13:01 -13.16339 -54.41460 29483 ft 481 kts 149°
2026-04-26 13:01 -13.19267 -54.39806 29750 ft 480 kts 149°
2026-04-26 13:01 -13.22194 -54.38152 30097 ft 479 kts 150°
2026-04-26 13:01 -13.25106 -54.36506 30399 ft 477 kts 150°
2026-04-26 13:02 -13.28007 -54.34866 30663 ft 476 kts 150°
2026-04-26 13:02 -13.30914 -54.33222 30909 ft 476 kts 150°
2026-04-26 13:02 -13.33781 -54.31599 31176 ft 475 kts 150°
2026-04-26 13:02 -13.36678 -54.29960 31457 ft 474 kts 150°
2026-04-26 13:03 -13.39560 -54.28328 31753 ft 473 kts 150°
2026-04-26 13:03 -13.42441 -54.26696 32047 ft 472 kts 150°
2026-04-26 13:03 -13.45313 -54.25070 32329 ft 471 kts 150°
2026-04-26 13:03 -13.48182 -54.23444 32613 ft 470 kts 150°
2026-04-26 13:04 -13.51046 -54.21821 32909 ft 469 kts 150°
2026-04-26 13:04 -13.53899 -54.20204 33205 ft 468 kts 150°
2026-04-26 13:04 -13.56746 -54.18589 33518 ft 466 kts 150°
2026-04-26 13:04 -13.59583 -54.16980 33790 ft 466 kts 150°
2026-04-26 13:05 -13.62419 -54.15370 34044 ft 465 kts 150°
2026-04-26 13:05 -13.65248 -54.13765 34271 ft 464 kts 150°
2026-04-26 13:05 -13.68072 -54.12162 34479 ft 464 kts 150°
2026-04-26 13:05 -13.70904 -54.10553 34678 ft 465 kts 150°
2026-04-26 13:06 -13.73733 -54.08946 34889 ft 465 kts 150°
2026-04-26 13:06 -13.76566 -54.07336 35042 ft 465 kts 150°
2026-04-26 13:06 -13.82215 -54.04125 35043 ft 467 kts 150°
2026-04-26 13:07 -13.87883 -54.00902 35046 ft 464 kts 150°
2026-04-26 13:07 -13.93521 -53.97694 35041 ft 462 kts 150°
2026-04-26 13:08 -13.99150 -53.94489 35042 ft 460 kts 150°
2026-04-26 13:08 -14.04760 -53.91293 35042 ft 460 kts 150°
2026-04-26 13:09 -14.10353 -53.88104 35045 ft 460 kts 150°
2026-04-26 13:09 -14.15934 -53.84921 35047 ft 461 kts 150°
2026-04-26 13:10 -14.21563 -53.81709 35046 ft 463 kts 150°
2026-04-26 13:10 -14.27207 -53.78485 35045 ft 465 kts 150°
2026-04-26 13:11 -14.32883 -53.75242 35044 ft 467 kts 150°
2026-04-26 13:11 -14.38578 -53.71986 35043 ft 468 kts 150°
2026-04-26 13:12 -14.44341 -53.68823 35040 ft 469 kts 153°
2026-04-26 13:12 -14.50164 -53.65843 35044 ft 470 kts 153°
2026-04-26 13:13 -14.56008 -53.62801 35040 ft 470 kts 152°
2026-04-26 13:13 -14.61734 -53.59551 35042 ft 469 kts 149°
2026-04-26 13:14 -14.67367 -53.56143 35041 ft 468 kts 149°
2026-04-26 13:14 -14.72992 -53.52765 35043 ft 468 kts 149°
2026-04-26 13:15 -14.78641 -53.49411 35033 ft 467 kts 149°
2026-04-26 13:15 -14.83332 -53.46632 35041 ft 467 kts 149°
2026-04-26 13:16 -14.89881 -53.42749 35034 ft 467 kts 149°
2026-04-26 13:16 -14.95518 -53.39402 35040 ft 466 kts 149°
2026-04-26 13:17 -15.03988 -53.34393 35035 ft 467 kts 150°
2026-04-26 13:18 -15.12533 -53.29493 35033 ft 468 kts 150°
2026-04-26 13:19 -15.21054 -53.24597 35032 ft 469 kts 150°
2026-04-26 13:19 -15.26762 -53.21305 35037 ft 470 kts 150°
2026-04-26 13:20 -15.32477 -53.18006 35028 ft 470 kts 150°
2026-04-26 13:20 -15.38205 -53.14698 35030 ft 471 kts 150°
2026-04-26 13:21 -15.43945 -53.11381 35026 ft 472 kts 150°
2026-04-26 13:21 -15.49638 -53.08089 35027 ft 472 kts 150°
2026-04-26 13:22 -15.55390 -53.04756 35022 ft 472 kts 150°
2026-04-26 13:22 -15.61176 -53.01399 35023 ft 473 kts 150°
2026-04-26 13:23 -15.66880 -52.98088 35027 ft 473 kts 150°
2026-04-26 13:23 -15.72632 -52.94747 35022 ft 473 kts 150°
2026-04-26 13:24 -15.78384 -52.91404 35028 ft 474 kts 150°
2026-04-26 13:24 -15.84137 -52.88059 35023 ft 474 kts 150°
2026-04-26 13:25 -15.89900 -52.84705 35028 ft 474 kts 150°
2026-04-26 13:25 -15.95663 -52.81349 35021 ft 474 kts 150°
2026-04-26 13:26 -16.01416 -52.77997 35023 ft 474 kts 150°
2026-04-26 13:26 -16.07172 -52.74640 35023 ft 474 kts 150°
2026-04-26 13:27 -16.12893 -52.71302 35022 ft 474 kts 150°
2026-04-26 13:27 -16.18652 -52.67940 35024 ft 474 kts 150°
2026-04-26 13:28 -16.24423 -52.64568 35021 ft 475 kts 150°
2026-04-26 13:28 -16.29212 -52.61768 35030 ft 475 kts 150°
2026-04-26 13:29 -16.34979 -52.58394 35023 ft 475 kts 150°
2026-04-26 13:29 -16.41680 -52.54470 35021 ft 475 kts 150°
2026-04-26 13:30 -16.46503 -52.51644 35028 ft 475 kts 150°
2026-04-26 13:30 -16.52267 -52.48265 35030 ft 475 kts 150°
2026-04-26 13:31 -16.58025 -52.44886 35029 ft 475 kts 150°
2026-04-26 13:31 -16.63744 -52.41529 35026 ft 475 kts 150°
2026-04-26 13:32 -16.69513 -52.38145 35033 ft 475 kts 150°
2026-04-26 13:32 -16.75282 -52.34766 35034 ft 476 kts 150°
2026-04-26 13:33 -16.81059 -52.31377 35032 ft 476 kts 150°
2026-04-26 13:33 -16.86832 -52.27988 35033 ft 476 kts 150°
2026-04-26 13:34 -16.92616 -52.24588 35033 ft 476 kts 150°
2026-04-26 13:34 -16.98392 -52.21192 35037 ft 477 kts 150°
2026-04-26 13:35 -17.04179 -52.17786 35039 ft 477 kts 150°
2026-04-26 13:35 -17.09977 -52.14400 35038 ft 477 kts 150°
2026-04-26 13:36 -17.15795 -52.11043 35047 ft 477 kts 150°
2026-04-26 13:36 -17.21618 -52.07681 35041 ft 478 kts 150°
2026-04-26 13:37 -17.27403 -52.04332 35049 ft 478 kts 150°
2026-04-26 13:37 -17.33223 -52.00955 35045 ft 478 kts 150°
2026-04-26 13:38 -17.39044 -51.97577 35049 ft 478 kts 150°
2026-04-26 13:38 -17.44870 -51.94192 35044 ft 478 kts 150°
2026-04-26 13:39 -17.50693 -51.90807 35048 ft 478 kts 150°
2026-04-26 13:39 -17.56516 -51.87420 35050 ft 478 kts 150°
2026-04-26 13:40 -17.62335 -51.84032 35052 ft 478 kts 150°
2026-04-26 13:40 -17.68168 -51.80634 35044 ft 479 kts 150°
2026-04-26 13:41 -17.73997 -51.77235 35044 ft 479 kts 150°
2026-04-26 13:41 -17.79829 -51.73832 35043 ft 480 kts 150°
2026-04-26 13:42 -17.85674 -51.70419 35037 ft 480 kts 150°
2026-04-26 13:42 -17.91508 -51.67010 35040 ft 480 kts 150°
2026-04-26 13:43 -17.97358 -51.63588 35038 ft 481 kts 150°
2026-04-26 13:43 -18.03205 -51.60166 35038 ft 481 kts 150°
2026-04-26 13:44 -18.09016 -51.56762 35036 ft 481 kts 150°
2026-04-26 13:44 -18.14863 -51.53335 35035 ft 481 kts 150°
2026-04-26 13:45 -18.20715 -51.49901 35031 ft 481 kts 150°
2026-04-26 13:45 -18.26566 -51.46462 35027 ft 482 kts 150°
2026-04-26 13:46 -18.32364 -51.42899 35025 ft 482 kts 149°
2026-04-26 13:46 -18.38126 -51.39298 35031 ft 482 kts 149°
2026-04-26 13:47 -18.43901 -51.35711 35024 ft 482 kts 149°
2026-04-26 13:47 -18.49683 -51.32129 35022 ft 482 kts 149°
2026-04-26 13:48 -18.55466 -51.28544 35021 ft 482 kts 149°
2026-04-26 13:48 -18.61253 -51.24954 35020 ft 482 kts 149°
2026-04-26 13:49 -18.67034 -51.21362 35014 ft 482 kts 149°
2026-04-26 13:49 -18.72777 -51.17792 35018 ft 482 kts 149°
2026-04-26 13:50 -18.78569 -51.14189 35016 ft 483 kts 149°
2026-04-26 13:50 -18.84363 -51.10580 35013 ft 483 kts 149°
2026-04-26 13:51 -18.90161 -51.06967 35015 ft 483 kts 149°
2026-04-26 13:51 -18.95961 -51.03348 35008 ft 483 kts 149°
2026-04-26 13:52 -19.01795 -50.99704 35016 ft 484 kts 149°
2026-04-26 13:52 -19.07494 -50.96011 35012 ft 484 kts 148°
2026-04-26 13:53 -19.13212 -50.92238 35010 ft 484 kts 148°
2026-04-26 13:53 -19.18974 -50.88446 35009 ft 484 kts 148°
2026-04-26 13:54 -19.24700 -50.84689 35009 ft 484 kts 148°
2026-04-26 13:54 -19.30443 -50.80922 35007 ft 484 kts 148°
2026-04-26 13:55 -19.38061 -50.75920 35008 ft 484 kts 148°
2026-04-26 13:56 -19.47634 -50.69625 35008 ft 484 kts 148°
2026-04-26 13:56 -19.53358 -50.65856 35006 ft 484 kts 148°
2026-04-26 13:57 -19.59088 -50.62080 35007 ft 484 kts 148°
2026-04-26 13:57 -19.64811 -50.58306 35004 ft 484 kts 148°
2026-04-26 13:58 -19.70555 -50.54558 35003 ft 484 kts 149°
2026-04-26 13:58 -19.76363 -50.50826 35000 ft 484 kts 149°
2026-04-26 13:59 -19.82127 -50.47117 35010 ft 484 kts 149°
2026-04-26 13:59 -19.87890 -50.43394 35003 ft 484 kts 149°
2026-04-26 14:00 -19.98436 -50.36567 35004 ft 484 kts 149°
2026-04-26 14:01 -20.04187 -50.32839 35001 ft 484 kts 149°
2026-04-26 14:01 -20.09940 -50.29108 35006 ft 484 kts 149°
2026-04-26 14:02 -20.15758 -50.25470 35009 ft 484 kts 152°
2026-04-26 14:02 -20.21657 -50.22020 35010 ft 483 kts 152°
2026-04-26 14:03 -20.27559 -50.18575 35013 ft 483 kts 152°
2026-04-26 14:03 -20.33411 -50.15121 35010 ft 483 kts 152°
2026-04-26 14:04 -20.39283 -50.11632 35010 ft 483 kts 152°
2026-04-26 14:04 -20.45156 -50.08135 35011 ft 483 kts 152°
2026-04-26 14:05 -20.51065 -50.04615 35004 ft 483 kts 152°
2026-04-26 14:05 -20.56941 -50.01113 35003 ft 483 kts 152°
2026-04-26 14:06 -20.62818 -49.97607 35014 ft 483 kts 152°
2026-04-26 14:06 -20.68694 -49.94099 35004 ft 484 kts 152°
2026-04-26 14:07 -20.74567 -49.90590 35005 ft 484 kts 152°
2026-04-26 14:07 -20.80403 -49.87099 35004 ft 484 kts 152°
2026-04-26 14:08 -20.86285 -49.83578 35004 ft 484 kts 152°
2026-04-26 14:08 -20.92169 -49.80052 35002 ft 484 kts 152°
2026-04-26 14:09 -20.98041 -49.76531 34999 ft 484 kts 152°
2026-04-26 14:09 -21.03923 -49.73000 34993 ft 484 kts 152°
2026-04-26 14:10 -21.09804 -49.69467 35001 ft 484 kts 153°
2026-04-26 14:10 -21.15684 -49.65931 34995 ft 484 kts 153°
2026-04-26 14:11 -21.24510 -49.60617 34987 ft 485 kts 153°
2026-04-26 14:11 -21.30398 -49.57068 34993 ft 485 kts 153°
2026-04-26 14:12 -21.36282 -49.53518 34992 ft 485 kts 153°
2026-04-26 14:12 -21.42131 -49.49986 34994 ft 485 kts 153°
2026-04-26 14:13 -21.50947 -49.44656 34994 ft 484 kts 153°
2026-04-26 14:14 -21.56827 -49.41097 35004 ft 484 kts 153°
2026-04-26 14:14 -21.62708 -49.37533 34997 ft 485 kts 153°
2026-04-26 14:15 -21.68590 -49.33966 35000 ft 485 kts 153°
2026-04-26 14:15 -21.74472 -49.30396 35006 ft 485 kts 153°
2026-04-26 14:16 -21.80356 -49.26820 35000 ft 486 kts 153°
2026-04-26 14:16 -21.86253 -49.23234 35001 ft 486 kts 153°
2026-04-26 14:17 -21.92146 -49.19646 35002 ft 486 kts 153°
2026-04-26 14:17 -21.98012 -49.16071 35000 ft 487 kts 153°
2026-04-26 14:18 -22.03911 -49.12473 35007 ft 487 kts 153°
2026-04-26 14:18 -22.09225 -49.07975 35031 ft 492 kts 130°
2026-04-26 14:18 -22.11143 -49.04908 35019 ft 494 kts 117°
2026-04-26 14:19 -22.12409 -49.01473 35039 ft 493 kts 107°
2026-04-26 14:19 -22.14489 -48.94423 35027 ft 494 kts 108°
2026-04-26 14:20 -22.16670 -48.87391 35016 ft 495 kts 109°
2026-04-26 14:20 -22.18902 -48.80360 35019 ft 495 kts 109°
2026-04-26 14:21 -22.21119 -48.73364 35004 ft 495 kts 109°
2026-04-26 14:21 -22.23338 -48.66329 35007 ft 496 kts 109°
2026-04-26 14:22 -22.25557 -48.59276 35002 ft 496 kts 109°
2026-04-26 14:22 -22.27776 -48.52218 35007 ft 496 kts 109°
2026-04-26 14:23 -22.29994 -48.45148 35005 ft 497 kts 109°
2026-04-26 14:23 -22.32210 -48.38075 35003 ft 497 kts 109°
2026-04-26 14:24 -22.34418 -48.31009 35004 ft 497 kts 109°
2026-04-26 14:24 -22.36634 -48.23911 34610 ft 503 kts 109°
2026-04-26 14:24 -22.37753 -48.20320 34028 ft 503 kts 109°
2026-04-26 14:25 -22.38867 -48.16741 33515 ft 500 kts 109°
2026-04-26 14:25 -22.39959 -48.13230 33047 ft 497 kts 109°
2026-04-26 14:25 -22.41055 -48.09706 32581 ft 493 kts 109°
2026-04-26 14:25 -22.42141 -48.06210 32120 ft 490 kts 109°
2026-04-26 14:26 -22.43227 -48.02709 31674 ft 486 kts 109°
2026-04-26 14:26 -22.44299 -47.99252 31218 ft 484 kts 109°
2026-04-26 14:26 -22.45365 -47.95814 30766 ft 481 kts 109°
2026-04-26 14:26 -22.46435 -47.92398 30312 ft 479 kts 112°
2026-04-26 14:27 -22.47800 -47.89131 29814 ft 475 kts 121°
2026-04-26 14:27 -22.49568 -47.86141 29331 ft 467 kts 131°
2026-04-26 14:27 -22.51599 -47.83426 28884 ft 462 kts 133°
2026-04-26 14:27 -22.53652 -47.80763 28419 ft 459 kts 133°
2026-04-26 14:28 -22.55693 -47.78121 27959 ft 456 kts 133°
2026-04-26 14:28 -22.57712 -47.75485 27513 ft 453 kts 132°
2026-04-26 14:28 -22.59700 -47.72865 27078 ft 450 kts 132°
2026-04-26 14:28 -22.61673 -47.70246 26630 ft 447 kts 132°
2026-04-26 14:29 -22.63626 -47.67642 26188 ft 444 kts 132°
2026-04-26 14:29 -22.65598 -47.65008 25735 ft 443 kts 132°
2026-04-26 14:29 -22.67506 -47.62459 25297 ft 440 kts 132°
2026-04-26 14:29 -22.69435 -47.59881 24843 ft 439 kts 132°
2026-04-26 14:30 -22.71356 -47.57314 24406 ft 437 kts 132°
2026-04-26 14:30 -22.73273 -47.54751 23962 ft 436 kts 132°
2026-04-26 14:30 -22.75180 -47.52200 23508 ft 435 kts 132°
2026-04-26 14:30 -22.77081 -47.49658 23010 ft 432 kts 131°
2026-04-26 14:31 -22.78960 -47.47140 22581 ft 429 kts 131°
2026-04-26 14:31 -22.80827 -47.44638 22157 ft 425 kts 131°
2026-04-26 14:31 -22.82684 -47.42149 21732 ft 421 kts 131°
2026-04-26 14:31 -22.84521 -47.39685 21317 ft 418 kts 131°
2026-04-26 14:32 -22.86343 -47.37240 20900 ft 416 kts 131°
2026-04-26 14:32 -22.88155 -47.34808 20486 ft 413 kts 131°
2026-04-26 14:32 -22.89936 -47.32415 20055 ft 411 kts 131°
2026-04-26 14:32 -22.91726 -47.30010 19628 ft 409 kts 131°
2026-04-26 14:33 -22.93534 -47.27579 19219 ft 406 kts 131°
2026-04-26 14:33 -22.95305 -47.25196 18797 ft 404 kts 131°
2026-04-26 14:33 -22.97066 -47.22827 18377 ft 403 kts 131°
2026-04-26 14:33 -22.98821 -47.20465 17913 ft 400 kts 131°
2026-04-26 14:34 -23.00586 -47.18149 17470 ft 396 kts 136°
2026-04-26 14:34 -23.02693 -47.16280 17054 ft 387 kts 151°
2026-04-26 14:34 -23.05077 -47.15015 16741 ft 377 kts 164°
2026-04-26 14:34 -23.07591 -47.14341 16446 ft 367 kts 172°
2026-04-26 14:35 -23.10054 -47.13827 16140 ft 362 kts 172°
2026-04-26 14:35 -23.12508 -47.13324 15862 ft 357 kts 172°
2026-04-26 14:35 -23.14149 -47.12982 15635 ft 354 kts 172°
2026-04-26 14:35 -23.17327 -47.12303 15250 ft 348 kts 172°
2026-04-26 14:36 -23.18936 -47.11953 15057 ft 347 kts 172°
2026-04-26 14:36 -23.21294 -47.11435 14760 ft 343 kts 172°
2026-04-26 14:36 -23.23621 -47.10922 14481 ft 339 kts 171°
2026-04-26 14:36 -23.25897 -47.10420 14209 ft 337 kts 171°
2026-04-26 14:37 -23.28188 -47.09917 13905 ft 335 kts 172°
2026-04-26 14:37 -23.30477 -47.09417 13586 ft 335 kts 172°
2026-04-26 14:37 -23.32763 -47.08917 13290 ft 334 kts 172°
2026-04-26 14:37 -23.35047 -47.08417 13015 ft 335 kts 172°
2026-04-26 14:38 -23.37338 -47.07915 12712 ft 336 kts 172°
2026-04-26 14:38 -23.39308 -47.07483 12491 ft 335 kts 172°
2026-04-26 14:38 -23.40766 -47.07104 12296 ft 337 kts 163°
2026-04-26 14:38 -23.42823 -47.05843 12021 ft 342 kts 142°
2026-04-26 14:39 -23.44367 -47.03871 11731 ft 344 kts 124°
2026-04-26 14:39 -23.45646 -47.01680 11462 ft 343 kts 123°
2026-04-26 14:39 -23.46894 -46.99465 11188 ft 342 kts 122°
2026-04-26 14:39 -23.48126 -46.97285 10926 ft 342 kts 123°
2026-04-26 14:40 -23.49377 -46.95089 10649 ft 339 kts 123°
2026-04-26 14:40 -23.50627 -46.92927 10338 ft 336 kts 123°
2026-04-26 14:40 -23.51871 -46.90786 10104 ft 332 kts 124°
2026-04-26 14:40 -23.53099 -46.88676 9982 ft 324 kts 123°
2026-04-26 14:41 -23.54285 -46.86641 9982 ft 312 kts 123°
2026-04-26 14:41 -23.55429 -46.84679 9922 ft 301 kts 123°
2026-04-26 14:41 -23.56622 -46.82831 9482 ft 297 kts 137°
2026-04-26 14:41 -23.58284 -46.81529 9258 ft 294 kts 151°
2026-04-26 14:42 -23.60040 -46.80342 9153 ft 297 kts 150°
2026-04-26 14:42 -23.61798 -46.79140 9102 ft 294 kts 150°
2026-04-26 14:42 -23.63522 -46.77951 9091 ft 292 kts 150°
2026-04-26 14:42 -23.65227 -46.76772 9007 ft 297 kts 150°
2026-04-26 14:43 -23.66989 -46.75553 8766 ft 301 kts 150°
2026-04-26 14:43 -23.68765 -46.74323 8487 ft 303 kts 150°
2026-04-26 14:43 -23.70536 -46.73094 8177 ft 298 kts 150°
2026-04-26 14:43 -23.72256 -46.71899 7939 ft 290 kts 150°
2026-04-26 14:44 -23.73954 -46.70722 7765 ft 289 kts 150°
2026-04-26 14:44 -23.75649 -46.69546 7510 ft 292 kts 150°
2026-04-26 14:44 -23.77427 -46.68314 7277 ft 293 kts 149°
2026-04-26 14:44 -23.79128 -46.67133 7040 ft 294 kts 150°
2026-04-26 14:45 -23.80829 -46.65949 6814 ft 285 kts 150°
2026-04-26 14:45 -23.81942 -46.65160 6651 ft 279 kts 145°
2026-04-26 14:45 -23.83433 -46.62978 6339 ft 269 kts 106°
2026-04-26 14:45 -23.83604 -46.61016 6120 ft 254 kts 79°
2026-04-26 14:46 -23.83118 -46.59235 5939 ft 235 kts 57°
2026-04-26 14:46 -23.82251 -46.57818 5797 ft 217 kts 48°
2026-04-26 14:46 -23.81348 -46.56569 5613 ft 203 kts 46°
2026-04-26 14:46 -23.80326 -46.55614 5434 ft 185 kts 18°
2026-04-26 14:47 -23.79130 -46.55246 5321 ft 176 kts 359°
2026-04-26 14:47 -23.77920 -46.55366 5209 ft 176 kts 334°
2026-04-26 14:47 -23.76841 -46.55961 5098 ft 171 kts 332°
2026-04-26 14:47 -23.75814 -46.56525 4949 ft 161 kts 327°
2026-04-26 14:48 -23.74822 -46.57179 5011 ft 176 kts 326°
2026-04-26 14:48 -23.73795 -46.57901 4901 ft 171 kts 325°
2026-04-26 14:48 -23.72848 -46.58564 4824 ft 153 kts 326°
2026-04-26 14:48 -23.71989 -46.59163 4619 ft 141 kts 325°
2026-04-26 14:49 -23.71167 -46.59735 4447 ft 140 kts 326°
2026-04-26 14:49 -23.70340 -46.60310 4268 ft 141 kts 326°
2026-04-26 14:49 -23.69525 -46.60879 4093 ft 139 kts 326°
2026-04-26 14:49 -23.68710 -46.61446 3921 ft 139 kts 326°
2026-04-26 14:50 -23.67893 -46.62013 3745 ft 138 kts 326°
2026-04-26 14:50 -23.67081 -46.62578 3524 ft 138 kts 326°
2026-04-26 14:50 -23.66279 -46.63138 3388 ft 143 kts 327°
2026-04-26 14:50 -23.65418 -46.63736 3190 ft 151 kts 327°
2026-04-26 14:51 -23.64532 -46.64352 2952 ft 150 kts 328°
2026-04-26 14:51 -23.63674 -46.64949 2736 ft 143 kts 328°
2026-04-26 14:51 -23.62866 -46.65512 2603 ft 127 kts 328°
2026-04-26 14:51 -23.62358 -46.65864 2600 ft 56 kts 327°
2026-04-26 14:52 -23.62198 -46.65982 2601 ft 11 kts 306°
2026-04-26 14:52 -23.62207 -46.66025 2600 ft 6 kts 225°
2026-04-26 14:52 -23.62247 -46.66040 2600 ft 6 kts 176°
2026-04-26 14:52 -23.62285 -46.66018 2600 ft 6 kts 148°
2026-04-26 14:53 -23.62322 -46.65993 2600 ft 7 kts 148°
2026-04-26 14:53 -23.62372 -46.65959 2600 ft 9 kts 148°
2026-04-26 14:53 -23.62425 -46.65922 2600 ft 9 kts 147°
2026-04-26 14:53 -23.62478 -46.65886 2600 ft 9 kts 147°
2026-04-26 14:54 -23.62528 -46.65850 2600 ft 8 kts 147°
2026-04-26 14:54 -23.62576 -46.65816 2600 ft 8 kts 147°
2026-04-26 14:54 -23.62623 -46.65783 2600 ft 8 kts 147°
2026-04-26 14:54 -23.62666 -46.65756 2600 ft 5 kts 162°
2026-04-26 14:55 -23.62687 -46.65765 2600 ft 3 kts 216°
2026-04-26 14:55 -23.62700 -46.65783 2600 ft 3 kts 236°
2026-04-26 14:55 -23.62711 -46.65803 2600 ft 3 kts 237°
2026-04-26 14:55 -23.62719 -46.65817 2600 ft 1 kts 237°
2026-04-26 14:56 -23.62720 -46.65817 2600 ft 0 kts 237°